Saranac Lake, NY

9:39 PM EDT on May 22, 2018 (GMT -0400)
Adirondack Regional

Weather History for KSLK - March, 2013

Change the Weather History Date:

Thursday, March 28, 2013

  Actual Average Record
Temperature  
Mean Temperature 35 °F 30 °F  
Max Temperature 41 °F 41 °F 64 °F (1949)
Min Temperature 28 °F 18 °F -4 °F (2015)
Degree Days  
Heating Degree Days 30 35  
Month to date heating degree days 1160 1154  
Since 1 July heating degree days 7417 7859  
Cooling Degree Days 0 0  
Month to date cooling degree days 0 0  
Year to date cooling degree days 0 0  
Moisture  
Dew Point 29 °F    
Average Humidity 78    
Maximum Humidity 92    
Minimum Humidity 64    
Precipitation  
Precipitation 0.02 in 0.09 in 0.40 in (1949)
Month to date precipitation 0.83 2.01  
Year to date precipitation 2.72 5.75  
Sea Level Pressure  
Sea Level Pressure 29.98 in    
Wind  
Wind Speed 3 mph (SW)    
Max Wind Speed 9 mph    
Max Gust Speed 12 mph    
Visibility 6 miles    
Events Snow    
T = Trace of Precipitation, MM = Missing Value Source: NWS Daily Summary

Daily Weather History Graph

Daily Weather History Graph

Search for Another Location

Airport or City:

Astronomy

Mar. 28, 2013 Rise Set
Actual Time 6:44 AM EDT 7:19 PM EDT
Civil Twilight 6:15 AM EDT 7:48 PM EDT
Nautical Twilight 5:41 AM EDT 8:23 PM EDT
Astronomical Twilight 5:05 AM EDT 8:59 PM EDT
Moon 9:14 PM EDT (3/28) 7:06 AM EDT (3/28)
Length of Visible Light 13h 33m
Length of Day
12h 34m
Full, 98% of the Moon is Illuminated
Mar 28
Full
Apr 3
Last Quarter
Apr 10
New
Apr 18
First Quarter
Apr 25
Full

Hourly Weather History & Observations

Time (EDT) Temp. Windchill Dew Point Humidity Pressure Visibility Wind Dir Wind Speed Gust Speed Precip Events Conditions
12:51 AM 28.0 °F - 24.1 °F 85% 29.94 in 9.0 mi Calm Calm - 0.00 in   Overcast
1:51 AM 28.0 °F - 26.1 °F 92% 29.94 in 8.0 mi Calm Calm - 0.00 in Snow Light Snow
2:51 AM 28.9 °F - 26.1 °F 89% 29.94 in 10.0 mi Calm Calm - 0.00 in   Overcast
3:51 AM 28.9 °F - 26.1 °F 89% 29.94 in 9.0 mi Calm Calm - 0.00 in   Overcast
4:27 AM 28.4 °F - 26.6 °F 93% 29.89 in 4.0 mi Calm Calm - 0.00 in Snow Light Snow
4:51 AM 28.9 °F - 27.0 °F 92% 29.94 in 4.0 mi Calm Calm - 0.00 in Snow Light Snow
5:13 AM 28.4 °F - 26.6 °F 93% 29.89 in 2.0 mi Calm Calm - 0.00 in Snow Light Snow
5:37 AM 28.4 °F 24.6 °F 26.6 °F 93% 29.90 in 3.0 mi WSW 3.5 mph - 0.00 in Snow Light Snow
5:51 AM 28.9 °F 23.9 °F 26.1 °F 89% 29.95 in 5.0 mi SW 4.6 mph - 0.00 in Snow Light Snow
6:09 AM 28.4 °F 24.6 °F 26.6 °F 93% 29.90 in 4.0 mi SW 3.5 mph - 0.00 in Snow Light Snow
6:17 AM 28.4 °F 24.6 °F 26.6 °F 93% 29.90 in 4.0 mi SW 3.5 mph - 0.00 in Snow Light Snow
6:51 AM 28.9 °F 23.9 °F 26.1 °F 89% 29.96 in 7.0 mi SW 4.6 mph - 0.00 in Snow Light Snow
7:07 AM 28.4 °F 23.3 °F 26.6 °F 93% 29.91 in 10.0 mi SW 4.6 mph - 0.00 in   Overcast
7:28 AM 28.4 °F 24.6 °F 26.6 °F 93% 29.92 in 1.8 mi WSW 3.5 mph - 0.00 in Snow Light Snow
7:37 AM 28.4 °F - 26.6 °F 93% 29.92 in 3.0 mi Calm Calm - 0.00 in Snow Light Snow
7:51 AM 28.9 °F 25.2 °F 27.0 °F 92% 29.98 in 9.0 mi SSW 3.5 mph - 0.00 in   Overcast
8:05 AM 28.4 °F 24.6 °F 26.6 °F 93% 29.93 in 10.0 mi SW 3.5 mph - N/A   Overcast
8:13 AM 30.2 °F 26.7 °F 26.6 °F 86% 29.93 in 1.8 mi SW 3.5 mph - 0.00 in Snow Light Snow
8:29 AM 30.2 °F 25.4 °F 26.6 °F 86% 29.94 in 2.5 mi SW 4.6 mph - 0.00 in Snow Light Snow
8:38 AM 30.2 °F 26.7 °F 26.6 °F 86% 29.94 in 3.0 mi SW 3.5 mph - 0.00 in Snow Light Snow
8:51 AM 30.0 °F 26.5 °F 28.0 °F 92% 29.99 in 1.8 mi SW 3.5 mph - 0.00 in Snow Light Snow
9:20 AM 30.2 °F 26.7 °F 28.4 °F 93% 29.95 in 0.8 mi SW 3.5 mph - 0.00 in Snow Light Snow
9:51 AM 30.0 °F - 28.9 °F 96% 30.01 in 1.0 mi Calm Calm - 0.01 in Snow Light Snow
10:08 AM 30.2 °F - 30.2 °F 100% 29.96 in 0.8 mi Calm Calm - 0.00 in Snow Light Snow
10:16 AM 30.2 °F 25.4 °F 30.2 °F 100% 29.96 in 1.2 mi South 4.6 mph - 0.01 in Snow Light Snow
10:32 AM 32.0 °F 27.5 °F 30.2 °F 93% 29.96 in 2.0 mi South 4.6 mph - 0.01 in   Overcast
10:51 AM 32.0 °F 28.7 °F 30.9 °F 96% 30.02 in 1.8 mi SSW 3.5 mph - 0.01 in Snow Light Snow
10:59 AM 32.0 °F 28.7 °F 30.2 °F 93% 29.97 in 3.0 mi South 3.5 mph - 0.00 in Snow Light Snow
11:32 AM 33.8 °F 30.8 °F 30.2 °F 87% 29.97 in 10.0 mi SSE 3.5 mph - 0.00 in   Overcast
12:04 PM 33.8 °F - 30.2 °F 87% 29.97 in 2.5 mi Calm Calm - 0.00 in Snow Light Snow
12:11 PM 35.6 °F - 30.2 °F 81% 29.97 in 6.0 mi Calm Calm - 0.00 in   Overcast
12:20 PM 35.6 °F - 30.2 °F 81% 29.97 in 10.0 mi Calm Calm - 0.00 in   Overcast
12:51 PM 35.1 °F - 30.9 °F 85% 30.03 in 10.0 mi Calm Calm - 0.00 in   Overcast
1:51 PM 37.0 °F 32.4 °F 33.1 °F 86% 30.02 in 6.0 mi NNE 5.8 mph - 0.00 in   Overcast
1:59 PM 37.4 °F 33.8 °F 32.0 °F 81% 29.97 in 7.0 mi NNE 4.6 mph - 0.00 in   Overcast
2:08 PM 37.4 °F 32.8 °F 33.8 °F 87% 29.97 in 10.0 mi North 5.8 mph - 0.00 in   Overcast
2:15 PM 37.4 °F 32.8 °F 32.0 °F 81% 29.97 in 9.0 mi North 5.8 mph - 0.00 in   Overcast
2:51 PM 39.9 °F 37.8 °F 30.9 °F 70% 30.01 in 10.0 mi Variable 3.5 mph - 0.00 in   Overcast
3:51 PM 39.9 °F 37.8 °F 28.9 °F 65% 30.01 in 10.0 mi West 3.5 mph - N/A   Overcast
4:31 PM 39.2 °F 37.0 °F 28.4 °F 65% 29.97 in 10.0 mi Variable 3.5 mph - N/A   Overcast
4:38 PM 39.2 °F - 28.4 °F 65% 29.97 in 10.0 mi Calm Calm - N/A   Overcast
4:51 PM 39.9 °F - 28.9 °F 65% 30.02 in 10.0 mi Calm Calm - N/A   Overcast
5:51 PM 39.0 °F 34.8 °F 30.0 °F 70% 30.04 in 10.0 mi West 5.8 mph - N/A   Overcast
6:51 PM 39.0 °F - 30.0 °F 70% 30.05 in 10.0 mi Calm Calm - N/A   Overcast
7:51 PM 37.0 °F - 30.0 °F 76% 30.06 in 10.0 mi Calm Calm - N/A   Overcast
8:31 PM 35.6 °F 30.7 °F 30.2 °F 81% 30.02 in 10.0 mi WSW 5.8 mph - N/A   Overcast
8:51 PM 36.0 °F 31.1 °F 30.9 °F 82% 30.08 in 10.0 mi WSW 5.8 mph - N/A   Overcast
9:51 PM 36.0 °F 31.1 °F 32.0 °F 86% 30.09 in 10.0 mi WSW 5.8 mph - N/A   Overcast
10:51 PM 34.0 °F 29.8 °F 30.9 °F 89% 30.09 in 10.0 mi SW 4.6 mph - N/A   Overcast
11:51 PM 34.0 °F 28.8 °F 30.9 °F 89% 30.09 in 10.0 mi SW 5.8 mph - N/A   Overcast
11:58 PM 33.8 °F 28.6 °F 30.2 °F 87% 30.04 in 10.0 mi WSW 5.8 mph - N/A   Overcast